Wind_Speed
12 14 17 19 16 15 14 15 14 13 14 12 14 16 14 10 14 13 14 15 13 10 13 16 16 16 18 18 19 18 22 24
9 8 10 10 11 9 8 8 8 7 11 10 9 12 9 9 11 11 12 12 11 12 14 17 18 20 20 19 21 23 26 26
3 3 4 4 6 6 6 7 8 9 5 6 7 8 5 2 3 3 6 7 7 8 12 18 20 20 20 23 26 28 30 30
4 3 3 5 5 6 8 10 10 9 8 7 6 3 2 1 4 4 7 6 8 10 12 16 19 20 24 26 30 33 37 37
3 2 2 3 3 3 4 5 5 3 3 4 4 4 3 4 6 6 7 7 8 11 14 15 19 24 30 34 37 39 40 42
5 3 2 3 1 2 3 1 2 2 3 3 3 4 5 7 10 11 11 10 12 14 16 19 20 22 29 31 34 41 35 38
2 2 2 3 4 5 6 6 6 7 7 7 7 9 8 9 10 13 16 14 12 14 13 15 17 23 27 29 28 28 28 32
5 3 4 5 9 10 10 10 11 8 9 10 11 13 12 12 14 14 17 22 17 21 18 18 20 20 25 26 26 28 33 37
12 8 10 12 13 14 14 14 13 13 11 12 15 16 16 17 17 19 23 30 25 23 17 21 24 24 27 31 32 34 37 40
18 13 12 12 18 20 17 19 20 19 16 12 14 20 22 17 19 17 22 29 27 24 20 21 26 28 32 34 36 38 39 42
19 21 17 14 15 17 16 21 20 26 22 19 18 18 21 22 22 18 20 21 25 24 25 25 29 33 36 38 39 40 42 45
20 20 24 25 23 20 20 27 33 26 17 26 27 26 27 26 25 38 30 22 24 28 26 31 35 36 39 40 41 43 46 49
18 21 19 22 26 26 27 29 26 23 27 28 26 31 39 36 22 26 30 27 25 31 30 35 38 40 41 42 44 47 50 52
24 22 22 21 23 26 28 27 27 29 30 25 20 26 25 27 33 30 32 37 36 33 36 39 41 41 43 45 47 50 52 53
24 15 18 19 22 25 28 26 27 29 28 29 32 36 36 35 34 33 35 37 35 36 39 41 41 42 44 46 49 52 54 56
25 21 22 22 23 23 26 28 30 31 32 32 34 33 35 36 35 37 38 36 38 41 41 40 41 44 47 49 53 54 55 57
36 30 31 25 23 24 25 28 30 31 31 31 31 33 35 36 36 37 37 38 40 40 39 41 43 46 50 53 55 56 58 60
33 35 35 29 26 26 29 30 30 30 31 33 33 33 32 34 37 38 38 38 38 38 40 42 46 49 53 56 56 58 60 60
20 30 32 30 30 30 32 34 33 33 33 33 34 34 34 35 35 35 36 35 36 38 42 46 50 53 56 57 58 59 59 59
Wind_Direction
53 84 96 98 84 74 79 88 87 104 106 107 117 127 124 119 129 145 152 167 181 175 193 199 207 214 226 238 252 269 280 289
51 47 60 76 77 71 75 72 73 57 71 83 83 87 108 132 149 175 196 198 189 205 212 213 220 230 240 255 269 280 287 290
20 51 53 62 72 84 78 71 68 80 72 59 73 85 108 129 171 197 232 267 214 229 236 232 232 245 261 272 282 286 290 297
358 46 49 54 65 68 73 70 62 62 67 66 66 78 64 318 247 232 251 229 244 239 241 259 270 272 274 283 288 292 293 293
91 29 54 84 79 68 61 72 59 44 38 26 12 359 351 316 293 273 250 246 248 253 259 267 283 283 280 285 286 288 288 290
124 120 20 336 293 305 307 281 225 243 269 272 269 269 274 299 294 287 273 254 252 246 258 269 286 286 297 294 300 299 290 299
249 181 291 267 297 289 271 276 288 312 303 289 293 291 282 294 294 280 275 261 258 257 279 275 302 307 301 298 305 285 287 303
277 295 305 302 292 298 289 280 272 291 292 282 287 283 260 291 289 270 278 276 257 253 275 295 302 305 295 296 303 298 293 297
259 277 311 300 302 294 278 276 267 262 256 280 299 290 276 287 276 261 296 309 260 256 278 290 298 303 302 301 302 300 299 300
295 286 300 281 296 291 286 274 268 269 268 269 294 293 285 279 286 290 308 289 259 275 280 294 296 304 303 301 300 302 303 303
294 292 293 287 295 277 268 270 277 269 261 260 272 278 273 271 274 274 276 279 283 280 302 298 300 303 301 301 301 302 303 303
296 288 292 295 295 287 271 279 267 284 268 276 275 278 278 261 277 268 278 265 278 298 296 299 299 303 302 302 304 303 304 304
276 291 296 297 299 301 292 289 291 274 269 275 275 276 273 249 281 278 278 296 302 290 298 301 303 302 301 303 303 304 305 306
260 272 277 283 284 285 289 290 295 284 281 266 267 292 293 290 284 291 288 292 293 301 301 299 299 300 301 302 303 304 305 306
255 274 275 275 273 278 284 291 287 282 287 284 285 288 288 290 288 287 288 290 293 295 294 295 297 297 299 302 304 305 307 306
287 287 271 267 266 271 277 284 285 285 282 279 279 283 284 283 288 286 285 289 292 291 293 294 296 300 303 305 305 304 304 305
286 289 288 275 269 267 268 269 271 272 275 278 278 277 277 276 276 280 285 287 287 290 294 298 301 303 304 303 302 304 305 306
286 279 278 279 278 276 272 270 270 272 276 280 282 281 279 281 282 283 284 286 288 292 296 298 300 301 302 302 303 302 304 307
272 278 274 279 280 279 277 273 274 278 281 282 283 284 284 284 282 280 282 285 290 293 295 297 299 300 300 300 300 302 305 305
Height
5747 5748 5750 5750 5750 5750 5750 5750 5752 5756 5757 5757 5759 5761 5762 5766 5766 5771 5773 5777 5780 5779 5781 5785 5787 5788 5790 5790 5790 5788 5788 5788
5749 5749 5747 5749 5750 5751 5752 5753 5754 5753 5756 5759 5762 5760 5763 5765 5767 5772 5776 5777 5776 5778 5778 5781 5784 5785 5785 5785 5784 5782 5782 5782
5751 5750 5751 5752 5752 5752 5752 5753 5753 5755 5758 5758 5759 5761 5763 5765 5768 5770 5772 5772 5773 5776 5777 5778 5780 5781 5782 5780 5778 5778 5778 5777
5752 5750 5750 5750 5751 5751 5752 5753 5755 5757 5758 5759 5760 5763 5761 5763 5765 5766 5767 5768 5770 5772 5774 5775 5775 5778 5778 5778 5776 5773 5770 5770
5752 5751 5753 5753 5753 5754 5755 5755 5757 5759 5760 5759 5759 5761 5761 5762 5762 5763 5764 5764 5766 5766 5769 5771 5771 5770 5769 5769 5769 5766 5762 5760
5751 5752 5753 5752 5753 5754 5755 5756 5757 5757 5758 5759 5759 5760 5759 5760 5760 5760 5760 5761 5761 5763 5764 5765 5766 5765 5762 5760 5758 5756 5754 5750
5750 5751 5752 5753 5753 5754 5755 5754 5754 5754 5754 5754 5754 5756 5757 5759 5759 5757 5756 5756 5756 5757 5758 5759 5757 5757 5755 5753 5750 5748 5745 5743
5750 5748 5749 5750 5752 5751 5752 5751 5751 5751 5751 5751 5753 5753 5753 5753 5752 5752 5754 5753 5750 5750 5749 5751 5752 5750 5748 5746 5744 5740 5737 5734
5746 5746 5744 5744 5746 5748 5747 5747 5748 5748 5748 5746 5745 5747 5746 5745 5744 5745 5746 5745 5744 5744 5744 5744 5744 5741 5739 5737 5734 5731 5727 5724
5737 5739 5740 5740 5741 5741 5741 5741 5738 5738 5740 5740 5740 5739 5739 5740 5739 5737 5737 5736 5738 5735 5734 5734 5735 5732 5730 5727 5725 5721 5718 5714
5733 5730 5733 5737 5738 5738 5736 5736 5735 5734 5735 5735 5735 5736 5735 5732 5731 5731 5731 5733 5731 5727 5726 5726 5726 5725 5722 5719 5716 5712 5708 5704
5727 5728 5727 5728 5731 5732 5731 5729 5729 5729 5727 5726 5727 5726 5725 5723 5722 5717 5723 5718 5721 5721 5720 5720 5720 5716 5713 5710 5706 5702 5698 5693
5728 5725 5725 5723 5721 5719 5718 5719 5721 5724 5721 5722 5718 5714 5708 5693 5714 5712 5702 5708 5713 5716 5712 5711 5709 5706 5704 5701 5696 5692 5687 5682
5722 5721 5721 5721 5719 5715 5712 5711 5712 5712 5714 5707 5705 5708 5706 5710 5711 5708 5709 5708 5708 5703 5703 5703 5700 5697 5694 5690 5685 5682 5676 5671
5713 5715 5716 5715 5714 5711 5707 5708 5705 5705 5705 5704 5703 5705 5704 5703 5702 5703 5701 5700 5698 5697 5696 5694 5691 5687 5684 5679 5675 5670 5664 5657
5706 5706 5708 5710 5709 5708 5706 5705 5703 5699 5700 5700 5700 5698 5697 5696 5694 5695 5695 5692 5690 5688 5686 5683 5680 5677 5673 5669 5664 5658 5652 5645
5697 5696 5699 5700 5702 5701 5700 5699 5699 5697 5696 5695 5694 5694 5693 5692 5690 5689 5687 5684 5681 5679 5676 5673 5670 5666 5662 5657 5651 5644 5637 5631
5690 5688 5689 5691 5692 5692 5691 5690 5691 5691 5690 5688 5688 5686 5684 5682 5681 5679 5677 5674 5672 5669 5667 5663 5660 5655 5650 5643 5637 5630 5624 5617
5685 5684 5683 5683 5684 5683 5682 5681 5680 5679 5679 5678 5677 5676 5674 5673 5671 5670 5668 5666 5663 5660 5657 5653 5648 5643 5637 5631 5624 5617 5610 5602